Temperature
23 23 22 22 25 27 28 30 31 30 30 30 29 29 28 26 26 24 23 22 22 21 21 21 20 20 20 20 19 19 19 19 19 19 19 19 19 19 19 19 19 19 19 19 18 18 18 18 18
23 22 23 24 26 28 29 30 30 30 30 30 29 28 27 26 25 23 22 22 21 21 21 20 20 20 20 20 19 19 19 19 19 19 19 19 19 19 19 19 19 19 19 18 18 18 18 18 18
23 23 25 27 27 28 29 31 31 31 30 30 29 27 26 25 24 23 22 22 21 21 21 20 20 20 20 19 19 19 19 19 19 19 19 19 19 19 19 19 19 18 18 18 18 18 18 18 18
23 25 27 28 28 30 31 31 31 31 30 30 29 27 25 24 23 23 22 22 21 21 20 20 20 20 20 19 19 19 19 19 19 19 19 19 19 19 18 18 18 18 18 18 18 18 18 18 18
25 27 28 29 30 31 32 32 31 31 30 29 28 26 25 24 23 23 22 22 22 21 20 20 20 20 20 19 19 19 19 19 19 18 19 19 18 18 18 18 18 18 18 18 18 18 18 18 18
27 28 28 29 30 31 32 32 31 31 30 29 28 26 24 24 23 23 22 22 22 21 20 20 20 20 20 19 19 19 19 19 19 19 18 18 18 18 18 18 18 18 18 18 18 18 18 18 18
28 29 29 30 30 31 32 31 31 31 30 29 28 27 25 24 23 23 22 22 22 21 20 20 20 20 19 19 19 19 19 19 19 19 18 18 18 18 18 18 18 18 18 18 18 18 18 18 18
30 29 30 30 30 30 32 31 30 29 29 29 28 27 25 24 23 23 23 22 22 21 20 20 19 19 19 19 19 19 19 19 19 19 18 18 18 18 18 18 18 18 18 18 18 18 18 18 18
31 29 29 30 31 31 32 31 30 29 28 28 27 26 25 24 23 23 23 22 21 21 20 20 20 19 19 19 19 19 19 19 19 18 18 18 18 18 18 18 18 18 18 18 18 18 18 18 18
32 30 30 32 32 32 32 31 30 29 28 27 27 26 25 24 24 23 23 22 21 21 20 20 20 19 19 19 19 19 18 19 19 18 18 18 18 18 18 18 18 18 18 18 18 18 18 18 18
32 32 32 32 32 32 32 32 31 30 29 28 27 26 25 24 24 23 23 22 21 21 20 20 19 19 19 19 19 19 19 19 18 18 18 18 18 18 18 18 18 18 18 18 18 18 18 18 18
33 33 33 33 32 32 32 31 30 30 29 28 27 26 25 24 24 23 23 22 21 21 20 20 19 19 19 19 19 19 19 19 18 18 18 18 18 18 18 18 18 18 18 18 18 18 18 18 18
33 33 33 32 32 32 32 31 30 29 28 27 26 25 25 24 24 23 22 22 21 20 20 20 19 19 19 19 19 19 19 19 19 18 18 18 18 18 18 18 18 18 18 18 18 18 18 18 18
32 32 32 32 32 32 31 30 30 29 28 27 26 26 25 24 24 23 22 22 21 20 20 19 19 19 19 19 19 19 19 19 19 18 18 18 18 18 18 18 18 18 18 18 18 18 18 18 18
32 31 32 33 32 32 31 30 30 29 28 27 27 26 25 24 23 23 22 22 21 20 20 19 19 19 19 19 19 19 19 19 19 18 18 18 18 18 18 18 18 18 18 18 18 18 18 18 18
31 31 31 32 33 32 31 29 30 29 28 28 27 26 25 24 24 23 22 21 21 20 20 20 19 19 19 19 19 19 19 19 18 18 18 18 18 18 18 18 18 18 18 18 18 18 18 18 18
31 31 31 32 33 33 32 30 30 30 29 28 27 26 25 24 23 23 22 21 21 20 20 19 19 19 19 19 19 19 19 19 18 18 18 18 18 18 18 18 18 18 18 18 18 18 18 18 18
30 31 32 32 33 33 32 31 30 30 29 28 27 26 25 24 24 23 22 21 21 20 20 19 19 19 19 19 19 19 19 19 18 18 18 18 18 18 18 18 18 18 18 18 18 18 18 18 18
31 32 32 33 34 33 32 31 31 30 30 29 28 27 26 25 24 23 22 21 21 20 20 19 19 19 19 19 18 18 19 19 18 18 18 18 18 18 18 18 18 18 18 18 18 18 18 18 18
32 32 32 33 34 33 32 31 31 31 30 29 28 27 26 25 24 23 22 21 21 20 20 19 19 19 19 19 19 19 19 19 18 18 18 18 18 18 18 18 18 18 18 18 18 18 18 18 18
32 32 32 32 33 33 32 31 31 31 30 29 29 28 27 26 24 23 22 22 21 20 20 19 19 19 19 19 18 18 18 18 18 18 18 18 18 18 18 18 18 18 18 18 18 18 18 18 18
32 33 33 32 31 31 31 29 29 29 30 30 29 28 27 26 25 24 23 22 21 21 20 20 19 19 19 19 18 18 18 18 18 18 18 18 18 18 18 18 18 18 18 18 18 18 18 18 18
33 34 33 32 31 31 31 29 29 29 29 29 29 28 27 26 25 24 23 22 21 21 20 20 19 19 19 19 18 18 18 18 18 18 18 18 18 18 18 18 18 18 18 18 18 18 18 18 18
33 33 32 32 31 29 29 29 28 29 29 29 29 28 27 26 25 24 23 22 21 21 20 20 19 19 19 19 18 18 18 18 18 18 18 18 18 18 18 18 18 18 18 18 18 18 18 18 18
33 32 30 29 29 28 29 28 28 29 30 30 29 28 27 26 25 24 23 22 21 21 20 20 19 19 19 19 18 18 18 18 18 18 18 18 18 18 18 18 18 18 18 18 18 18 17 17 17
32 32 29 28 28 29 29 28 29 30 30 30 29 28 27 26 25 24 23 22 21 20 20 19 19 19 19 19 19 18 18 18 18 18 18 17 18 18 18 18 17 17 17 17 17 17 17 17 17
32 32 32 30 30 29 28 28 29 30 30 30 29 28 27 26 25 24 23 22 21 20 20 19 19 19 19 18 18 18 18 18 18 17 17 17 17 17 17 17 17 17 17 17 17 17 17 17 17
33 32 32 31 28 28 28 28 28 28 29 29 29 28 27 26 25 24 23 22 21 20 20 19 19 19 18 18 18 18 18 17 17 17 17 17 17 17 17 17 17 17 17 17 17 17 17 17 17
32 32 32 31 30 29 27 27 29 28 28 29 29 27 27 26 25 24 23 22 21 21 20 19 19 19 18 18 18 18 17 17 17 17 17 17 17 17 17 17 16 16 16 16 16 16 16 16 16
33 32 32 30 29 29 28 27 30 30 30 29 28 27 26 25 25 24 23 22 21 21 20 19 19 18 18 18 18 17 17 17 17 17 17 17 17 17 17 16 16 16 16 16 16 16 16 16 16
Wind_Speed
9 11 9 5 4 1 10 12 14 14 13 13 14 13 17 16 10 8 7 9 11 13 14 15 15 15 15 14 13 12 12 12 12 12 12 11 11 12 12 12 12 12 11 11 11 10 10 9 9
9 10 7 4 2 6 11 12 14 13 12 11 14 15 16 15 12 9 9 9 11 12 14 15 16 15 15 14 13 12 11 11 11 10 10 10 10 10 11 11 11 11 11 10 9 9 9 9 8
11 10 5 0 5 9 12 12 12 12 11 11 13 14 12 10 11 8 9 10 11 12 15 17 16 15 14 13 12 11 11 10 10 9 9 9 9 9 10 10 10 10 10 10 9 8 8 8 8
6 5 2 2 7 10 12 11 11 12 11 12 12 11 12 11 9 10 11 11 11 12 14 16 16 15 14 13 12 11 10 10 9 9 8 8 8 9 9 9 10 10 10 9 9 8 7 7 7
7 3 1 5 8 11 11 12 12 12 12 14 15 14 13 12 13 12 11 11 11 11 14 16 15 14 13 12 11 11 10 9 9 8 7 7 7 9 8 9 9 9 9 9 9 8 7 6 6
4 1 2 6 10 11 11 11 11 11 12 12 14 13 10 11 12 10 11 10 11 12 14 15 15 14 13 12 11 11 10 9 8 8 7 7 7 8 8 8 8 8 8 8 8 8 7 7 7
5 3 4 8 9 11 11 11 12 11 12 11 12 11 9 11 10 11 10 10 11 12 12 11 12 12 12 11 11 11 10 9 8 7 7 7 7 8 8 9 8 8 8 8 8 8 8 8 8
2 2 5 7 10 10 10 12 12 12 11 10 10 9 10 11 11 10 10 10 10 10 9 9 10 10 9 10 11 10 10 9 8 8 7 7 7 8 9 9 9 8 8 8 8 9 9 10 9
3 2 6 8 8 8 8 10 10 11 11 11 12 13 13 13 11 10 9 9 9 9 7 7 7 7 7 8 10 10 9 8 8 8 8 7 7 8 9 9 10 10 10 10 10 10 11 11 11
1 4 7 7 8 7 8 8 8 9 9 11 13 14 14 12 11 9 9 8 8 7 7 6 7 6 5 5 7 6 6 7 7 7 7 7 5 5 6 9 10 11 12 11 12 12 12 12 10
3 4 5 7 7 6 7 8 8 9 8 11 13 12 12 11 10 9 9 8 7 6 6 6 6 4 4 4 4 3 3 4 4 5 5 4 4 4 5 6 7 9 11 9 10 11 10 9 7
2 3 5 5 5 5 7 9 9 11 10 12 13 12 10 9 8 8 8 8 7 6 5 5 5 5 3 3 2 2 3 3 2 4 4 3 2 2 2 2 5 6 6 6 5 5 5 5 5
1 2 4 4 4 5 6 8 9 10 11 12 13 11 9 8 7 8 7 7 7 6 5 5 5 5 3 2 1 1 1 2 3 3 2 2 1 1 1 0 1 2 3 4 4 3 3 3 4
1 2 2 2 2 4 7 7 8 9 11 11 11 10 8 7 8 8 7 6 6 5 5 5 5 5 3 2 0 1 1 1 1 2 2 1 0 1 0 0 1 1 2 3 3 3 3 3 3
3 2 3 2 1 3 5 6 7 8 10 10 10 9 8 7 8 7 6 6 6 6 5 4 4 4 3 1 0 1 1 2 2 2 2 1 1 1 0 1 1 2 3 3 2 2 2 3 3
5 5 5 2 2 3 3 5 6 8 9 9 9 8 8 7 7 7 7 6 7 6 6 4 3 4 3 2 1 2 2 2 2 2 2 1 0 0 1 1 1 1 2 2 2 2 2 2 2
8 5 4 2 1 1 2 4 6 8 8 8 8 9 8 7 7 7 7 7 7 6 5 4 3 4 3 2 1 0 1 1 1 1 2 1 0 0 1 0 0 1 1 2 2 2 2 2 2
6 6 3 1 1 1 3 4 6 6 7 8 8 9 8 8 7 7 7 7 7 6 5 4 3 3 2 1 1 0 1 1 1 2 1 1 0 0 1 1 1 1 1 1 1 1 1 2 2
8 8 4 2 1 2 1 4 7 6 7 7 8 8 8 8 8 8 7 7 7 6 5 4 2 2 1 1 0 0 0 1 1 2 2 1 0 0 1 1 0 1 1 1 1 1 1 1 1
7 7 5 2 1 2 2 3 7 8 7 6 7 9 9 9 9 9 8 7 7 6 5 4 3 2 1 0 0 0 0 1 1 1 2 1 0 0 0 0 1 1 0 1 1 1 1 1 1
7 6 6 5 5 5 3 3 6 7 7 6 6 8 9 10 10 9 8 7 7 6 5 4 3 3 2 1 0 0 1 1 1 1 2 1 1 1 2 1 0 0 1 1 2 2 2 2 2
8 5 6 7 8 6 5 2 5 4 5 6 6 6 8 9 10 9 8 7 7 7 6 5 3 3 2 2 0 0 1 1 1 1 1 1 1 1 1 1 1 1 0 0 2 2 1 2 2
8 8 8 8 8 8 5 1 3 4 4 5 6 5 7 8 8 9 8 7 7 6 6 6 5 3 3 2 1 1 1 1 2 2 2 2 1 1 2 2 1 1 1 0 1 1 1 1 1
8 9 10 8 6 6 5 3 1 4 5 6 7 7 6 8 8 7 7 6 6 6 5 6 5 4 3 3 2 2 1 1 2 2 2 1 1 2 2 2 2 2 2 1 1 1 1 1 1
9 8 6 5 4 5 3 2 2 6 7 8 8 7 7 8 8 7 7 7 6 5 5 5 5 4 3 3 2 2 1 1 1 1 1 1 1 2 2 3 2 2 1 1 1 1 1 1 1
7 7 6 7 6 4 1 3 5 6 8 8 8 8 8 8 8 7 7 6 5 5 5 5 5 4 4 4 3 2 2 1 1 0 1 1 1 2 2 2 2 2 2 2 1 1 1 0 1
7 7 8 9 10 6 1 2 5 6 8 8 8 8 7 7 9 8 7 7 6 5 4 4 5 4 3 3 4 3 2 1 1 1 1 1 1 1 2 2 2 2 2 2 2 1 1 1 0
8 8 7 6 5 6 3 1 2 5 5 6 7 7 7 5 8 9 8 7 6 6 5 4 5 4 4 4 3 3 2 2 2 1 0 1 1 2 1 1 1 1 2 2 1 1 1 1 1
8 8 7 6 6 6 4 2 4 7 5 6 7 7 7 5 5 8 8 7 6 6 5 4 5 4 4 4 3 2 2 2 2 1 1 0 1 1 1 2 2 2 2 2 2 1 1 1 1
9 9 9 6 5 5 5 1 3 4 4 6 8 7 8 6 6 7 8 6 5 5 4 4 3 4 4 3 3 2 2 2 1 1 1 1 1 1 1 1 1 2 2 2 2 3 2 1 1
Wind_Direction
214 223 227 252 246 78 59 59 60 56 56 54 53 57 60 51 52 81 90 84 90 101 116 119 116 115 113 112 111 110 111 113 117 119 123 125 127 126 128 128 129 131 134 136 137 139 136 133 132
238 238 240 255 340 63 64 60 62 60 62 64 65 63 64 60 66 88 86 87 92 100 112 119 118 115 114 114 113 112 112 114 119 121 125 127 128 131 134 135 136 135 135 137 138 140 137 134 137
253 257 260 198 45 58 62 61 68 69 68 68 73 64 56 66 75 90 96 100 100 104 111 118 120 118 117 116 114 115 116 114 115 118 124 129 134 135 137 139 141 141 142 144 143 142 142 144 150
254 246 229 71 59 63 68 66 69 72 67 63 71 70 66 68 84 97 102 103 102 105 113 119 120 121 121 120 119 117 117 116 118 120 122 134 145 145 143 143 145 146 150 152 150 149 149 154 160
244 262 328 68 65 67 66 65 69 69 67 68 77 83 78 79 92 99 101 99 101 102 110 119 121 120 121 123 123 120 118 119 122 126 128 135 149 152 151 150 151 152 154 156 156 161 162 165 171
267 289 358 64 70 65 63 60 65 70 74 78 86 88 85 95 98 99 98 101 101 106 111 120 124 124 126 127 127 126 125 127 132 133 135 142 152 157 156 157 158 161 162 165 164 171 176 182 186
258 343 30 56 68 66 58 58 57 62 64 69 87 92 102 102 102 101 100 101 98 103 110 122 125 129 132 136 136 135 137 139 144 147 150 154 158 161 164 164 166 171 172 173 176 184 188 193 198
259 353 21 55 62 63 61 64 61 55 55 64 78 93 112 113 111 104 102 97 97 96 101 118 127 131 136 142 143 147 150 149 154 161 164 166 172 173 173 175 175 180 184 186 192 196 198 200 206
262 52 38 50 62 64 63 72 77 75 71 61 69 94 114 122 118 112 100 90 86 90 100 104 109 116 129 138 145 155 160 163 167 172 176 182 185 179 181 177 178 185 190 197 203 204 205 206 212
290 67 50 44 56 64 69 72 81 91 90 87 89 100 117 122 120 115 107 101 95 98 101 101 101 99 110 117 134 153 159 165 181 173 180 186 183 176 172 170 187 193 197 202 208 213 210 211 211
37 51 64 54 51 55 62 61 67 83 85 96 104 113 120 123 121 116 110 104 102 103 98 102 102 103 95 105 141 140 145 159 169 162 174 165 176 180 172 174 187 195 200 203 204 212 211 210 206
70 52 49 56 52 57 63 64 61 69 77 96 108 114 115 118 119 115 113 111 107 102 102 99 102 96 87 89 110 155 163 154 159 162 171 169 195 198 185 189 189 190 189 185 192 209 215 214 209
4 43 49 59 59 56 68 79 78 80 91 102 109 111 112 115 111 109 109 108 104 107 106 96 92 91 86 69 353 120 104 127 147 143 160 164 189 192 148 182 193 200 178 171 184 207 204 220 230
13 20 17 16 25 88 80 79 84 97 105 110 115 118 117 115 107 107 115 115 114 113 110 111 110 102 99 98 37 45 75 140 135 138 135 124 55 64 36 213 182 201 180 168 183 198 197 217 223
316 305 274 271 270 129 108 89 97 115 118 119 121 123 121 113 108 109 108 114 119 117 111 111 122 109 101 86 356 130 185 139 105 104 108 125 133 106 220 228 204 187 177 178 190 202 203 217 222
272 256 252 254 227 184 122 97 118 136 127 124 128 128 122 114 114 113 107 110 112 111 106 106 102 109 113 94 4 356 34 58 84 108 113 96 73 209 247 224 176 176 169 158 178 204 212 218 232
259 251 236 219 230 129 111 114 136 142 136 135 137 136 134 130 124 117 112 111 108 105 108 108 86 91 106 120 153 25 59 72 98 88 104 125 249 230 271 260 127 216 166 168 195 176 201 218 237
283 284 264 267 115 55 86 121 146 152 145 142 143 143 142 137 134 128 120 120 116 110 107 108 103 88 104 122 164 90 60 83 112 99 86 95 357 73 281 235 142 239 176 166 144 176 213 218 224
263 284 292 315 343 336 145 153 156 159 141 143 146 145 145 144 140 136 134 132 124 117 116 117 116 104 109 112 282 149 133 108 87 108 97 99 342 33 252 339 98 256 220 160 163 157 235 237 179
266 285 291 301 257 276 207 173 153 150 145 151 153 152 152 151 150 149 148 145 142 135 130 135 138 134 151 134 239 207 132 126 109 82 112 116 153 339 298 109 290 295 270 170 199 190 206 243 190
268 267 289 307 299 268 243 184 154 143 144 146 149 148 151 153 155 155 159 160 158 151 150 156 154 149 155 126 169 30 126 103 65 78 86 53 50 42 350 74 313 265 226 178 219 203 210 234 223
272 282 288 280 279 269 248 198 129 137 152 146 148 151 152 152 151 155 161 166 164 160 158 145 138 141 141 139 88 50 86 69 49 33 63 71 63 28 357 12 337 291 296 159 241 195 232 220 230
288 297 287 282 281 283 292 274 169 164 173 156 149 145 152 150 151 152 157 165 164 161 154 146 135 131 139 152 149 94 34 44 47 50 49 47 57 38 17 31 6 345 337 317 297 302 239 236 246
284 286 279 270 271 272 281 278 184 170 174 156 147 148 144 142 139 135 141 142 147 146 142 135 129 130 142 147 132 110 85 60 41 42 62 48 71 48 37 38 26 11 350 342 340 318 277 283 283
267 275 286 279 249 252 250 213 158 147 148 140 132 127 128 130 127 131 134 136 134 134 134 131 128 137 143 145 141 137 143 130 92 35 28 9 45 49 39 31 32 14 356 355 0 358 300 282 279
266 268 277 292 295 296 250 169 121 113 125 122 123 125 130 132 131 132 129 125 128 134 129 125 129 139 150 155 160 153 144 143 130 84 330 13 31 41 38 42 35 7 1 354 14 2 323 331 298
264 271 276 284 291 298 270 119 111 109 116 116 117 119 124 132 137 137 134 132 130 118 116 127 130 140 151 155 154 146 152 162 91 49 19 29 35 31 47 34 22 14 9 1 16 8 351 10 308
255 274 280 279 293 291 277 179 141 121 122 130 131 127 125 131 139 135 135 135 132 129 117 118 134 143 146 138 143 140 151 147 127 118 86 16 16 17 25 7 8 4 14 358 -0 357 357 6 356
247 257 271 293 299 296 303 344 124 138 152 150 136 128 123 121 131 132 132 133 132 129 127 115 108 110 116 119 131 143 140 140 147 137 125 358 358 3 13 349 349 354 356 344 332 317 334 357 339
258 264 264 264 274 283 290 292 123 112 116 117 119 118 115 119 112 118 124 123 123 119 112 113 112 111 108 107 109 103 117 121 124 120 96 49 9 356 355 352 335 336 348 345 331 322 334 351 339
Height
1493 1492 1492 1495 1493 1489 1487 1479 1474 1476 1477 1479 1481 1482 1486 1490 1495 1506 1506 1504 1504 1503 1502 1503 1504 1504 1505 1506 1508 1509 1510 1511 1513 1515 1516 1518 1520 1522 1524 1525 1527 1529 1531 1533 1535 1537 1539 1540 1542
1492 1494 1496 1495 1492 1495 1490 1478 1478 1479 1480 1481 1483 1486 1489 1495 1499 1503 1505 1506 1506 1505 1504 1505 1506 1506 1507 1509 1510 1511 1512 1513 1515 1516 1518 1520 1521 1523 1525 1527 1528 1530 1532 1534 1535 1537 1539 1541 1542
1493 1495 1497 1491 1490 1492 1489 1478 1478 1480 1482 1482 1485 1490 1494 1500 1503 1505 1507 1507 1507 1507 1506 1507 1507 1508 1509 1510 1512 1513 1514 1515 1516 1518 1519 1521 1522 1524 1526 1528 1529 1531 1533 1534 1536 1538 1539 1541 1542
1494 1495 1493 1489 1492 1482 1479 1478 1478 1481 1483 1484 1487 1493 1500 1504 1505 1507 1508 1509 1509 1508 1508 1508 1509 1510 1511 1512 1513 1514 1515 1516 1518 1519 1520 1521 1523 1525 1526 1528 1530 1531 1533 1535 1536 1538 1539 1541 1543
1496 1493 1490 1490 1486 1478 1477 1478 1480 1483 1485 1487 1491 1498 1503 1507 1507 1509 1509 1510 1510 1510 1510 1510 1511 1511 1512 1513 1514 1515 1517 1518 1519 1520 1521 1522 1523 1525 1527 1528 1530 1531 1533 1535 1536 1538 1540 1541 1543
1496 1491 1496 1493 1486 1480 1479 1480 1481 1484 1486 1489 1493 1499 1506 1509 1509 1510 1511 1512 1512 1512 1512 1512 1513 1513 1514 1515 1516 1517 1518 1519 1520 1521 1522 1523 1524 1525 1527 1528 1530 1531 1533 1534 1536 1537 1539 1541 1543
1494 1491 1492 1490 1487 1485 1482 1483 1484 1486 1488 1491 1494 1499 1507 1509 1511 1512 1512 1513 1514 1514 1514 1514 1515 1515 1516 1516 1517 1518 1519 1520 1521 1522 1523 1523 1524 1526 1527 1529 1530 1531 1532 1534 1536 1537 1539 1541 1542
1490 1491 1491 1489 1489 1488 1484 1485 1488 1491 1492 1494 1495 1499 1507 1511 1512 1513 1514 1515 1516 1516 1516 1517 1517 1517 1517 1518 1519 1519 1520 1521 1522 1522 1523 1524 1525 1526 1527 1528 1529 1531 1532 1533 1535 1537 1538 1540 1542
1488 1492 1495 1490 1488 1487 1485 1487 1490 1493 1496 1497 1498 1501 1507 1511 1513 1514 1515 1517 1517 1518 1518 1519 1519 1519 1519 1520 1520 1520 1521 1522 1522 1523 1524 1524 1525 1525 1526 1527 1528 1529 1531 1532 1534 1536 1538 1539 1541
1485 1492 1492 1485 1484 1485 1486 1487 1490 1493 1496 1499 1502 1506 1509 1511 1513 1515 1516 1517 1519 1519 1520 1520 1520 1520 1521 1521 1521 1521 1522 1522 1523 1523 1524 1525 1525 1526 1527 1527 1527 1528 1529 1531 1533 1535 1537 1538 1540
1484 1487 1485 1485 1485 1486 1486 1487 1490 1492 1496 1500 1503 1507 1510 1512 1514 1516 1517 1519 1520 1520 1521 1521 1521 1521 1522 1522 1523 1523 1523 1524 1524 1524 1525 1525 1525 1526 1526 1526 1526 1527 1528 1530 1532 1534 1535 1537 1539
1485 1485 1485 1485 1486 1486 1487 1489 1492 1494 1499 1502 1505 1508 1511 1513 1515 1516 1518 1519 1521 1521 1522 1522 1522 1522 1522 1522 1523 1523 1524 1524 1524 1525 1525 1525 1525 1526 1526 1526 1526 1526 1527 1529 1531 1533 1535 1536 1538
1485 1485 1486 1486 1486 1487 1489 1491 1494 1498 1501 1504 1507 1510 1512 1514 1515 1517 1518 1520 1521 1522 1522 1522 1523 1522 1522 1522 1523 1524 1524 1524 1525 1525 1525 1525 1525 1526 1526 1525 1525 1526 1527 1528 1530 1531 1533 1535 1537
1487 1486 1486 1487 1487 1487 1490 1493 1496 1500 1502 1505 1508 1511 1513 1515 1516 1517 1518 1519 1520 1521 1522 1523 1523 1523 1523 1523 1523 1524 1524 1524 1525 1525 1525 1525 1525 1525 1525 1525 1524 1525 1526 1528 1529 1530 1532 1534 1535
1488 1489 1488 1486 1485 1487 1489 1495 1497 1500 1503 1505 1509 1511 1514 1516 1517 1518 1518 1518 1519 1521 1522 1523 1523 1523 1523 1523 1523 1524 1524 1525 1525 1525 1525 1525 1525 1525 1525 1524 1524 1524 1525 1527 1528 1530 1531 1532 1534
1490 1493 1495 1485 1482 1484 1490 1502 1497 1499 1502 1505 1508 1511 1514 1516 1517 1518 1519 1519 1520 1521 1522 1523 1524 1523 1523 1524 1524 1524 1525 1525 1525 1525 1525 1525 1525 1525 1525 1525 1524 1525 1525 1527 1528 1529 1530 1531 1532
1494 1497 1494 1486 1479 1480 1487 1497 1495 1497 1500 1504 1507 1511 1514 1516 1518 1519 1520 1521 1521 1522 1523 1523 1524 1524 1524 1524 1524 1525 1525 1525 1525 1525 1525 1525 1525 1525 1524 1525 1525 1525 1526 1527 1528 1529 1529 1530 1531
1501 1493 1490 1487 1479 1480 1486 1492 1494 1496 1498 1502 1506 1510 1513 1515 1518 1519 1520 1521 1522 1523 1523 1524 1524 1524 1524 1525 1525 1525 1525 1525 1525 1525 1525 1525 1525 1525 1524 1525 1525 1525 1526 1526 1527 1528 1528 1529 1530
1489 1489 1490 1483 1477 1481 1487 1490 1491 1494 1496 1500 1504 1508 1512 1515 1518 1519 1521 1522 1523 1523 1524 1524 1524 1524 1524 1524 1524 1524 1525 1525 1525 1525 1525 1525 1525 1525 1525 1524 1525 1525 1525 1526 1526 1526 1527 1528 1529
1486 1490 1488 1483 1477 1481 1486 1488 1488 1491 1495 1499 1502 1505 1509 1513 1516 1518 1520 1522 1522 1523 1523 1523 1524 1523 1524 1524 1524 1524 1524 1525 1525 1525 1525 1525 1525 1525 1525 1524 1524 1524 1525 1525 1525 1526 1526 1527 1528
1486 1488 1486 1487 1480 1478 1484 1492 1490 1491 1494 1497 1500 1503 1507 1510 1514 1517 1519 1521 1522 1522 1523 1523 1523 1523 1523 1524 1524 1524 1524 1524 1525 1525 1525 1525 1525 1524 1524 1524 1524 1524 1524 1524 1524 1525 1525 1526 1526
1488 1478 1480 1483 1488 1490 1488 1505 1497 1494 1494 1495 1499 1502 1505 1508 1512 1515 1518 1520 1521 1522 1522 1522 1523 1523 1523 1523 1523 1524 1524 1524 1525 1525 1525 1525 1524 1524 1524 1524 1523 1523 1523 1523 1524 1524 1524 1525 1525
1481 1476 1478 1481 1487 1492 1489 1501 1503 1493 1496 1495 1497 1500 1503 1507 1510 1513 1516 1518 1520 1521 1521 1521 1522 1522 1522 1522 1522 1523 1524 1524 1524 1524 1524 1524 1524 1524 1523 1523 1523 1523 1523 1523 1523 1523 1523 1523 1524
1476 1478 1479 1481 1489 1507 1498 1504 1507 1496 1494 1494 1495 1499 1502 1505 1509 1512 1515 1517 1519 1520 1520 1521 1521 1521 1521 1521 1522 1522 1523 1523 1524 1524 1524 1524 1523 1523 1523 1522 1522 1522 1522 1522 1522 1521 1522 1522 1522
1478 1488 1503 1507 1510 1511 1492 1501 1503 1489 1487 1490 1494 1498 1502 1505 1508 1511 1514 1516 1517 1519 1519 1519 1519 1519 1520 1520 1521 1521 1522 1523 1523 1523 1524 1523 1523 1523 1522 1522 1522 1521 1521 1521 1521 1520 1520 1520 1521
1480 1485 1506 1519 1517 1506 1497 1504 1495 1484 1485 1490 1493 1497 1501 1504 1507 1511 1513 1515 1517 1518 1518 1518 1518 1518 1519 1520 1520 1521 1521 1522 1522 1523 1523 1523 1522 1522 1522 1521 1521 1520 1520 1520 1520 1519 1519 1519 1519
1482 1483 1480 1493 1498 1506 1504 1497 1491 1485 1487 1490 1494 1497 1501 1504 1507 1510 1513 1515 1516 1517 1518 1518 1517 1518 1518 1519 1519 1520 1520 1521 1521 1522 1522 1522 1522 1522 1521 1521 1520 1519 1519 1519 1519 1518 1518 1518 1518
1475 1476 1481 1492 1511 1520 1509 1505 1503 1494 1490 1490 1494 1497 1500 1504 1505 1509 1512 1514 1516 1517 1517 1518 1517 1517 1518 1519 1519 1519 1519 1520 1520 1521 1521 1521 1521 1521 1520 1520 1519 1518 1518 1518 1518 1518 1518 1517 1517
1477 1478 1481 1485 1490 1509 1519 1516 1489 1491 1489 1489 1492 1497 1499 1504 1506 1508 1511 1514 1516 1517 1517 1518 1517 1517 1518 1518 1519 1519 1519 1519 1520 1520 1520 1520 1520 1519 1519 1518 1518 1518 1517 1517 1517 1517 1517 1516 1516
1472 1474 1478 1493 1499 1496 1507 1510 1483 1485 1487 1489 1493 1497 1501 1505 1507 1509 1511 1514 1516 1517 1517 1517 1518 1518 1518 1518 1518 1519 1518 1519 1519 1519 1519 1519 1519 1518 1517 1517 1517 1516 1516 1516 1516 1515 1515 1515 1514